Weather History for Hatteras, NC

Change the Weather History Date:

Wednesday, April 25, 2012

  Actual Average Record
Temperature  
Mean Temperature 64 °F 62 °F  
Max Temperature 70 °F 69 °F 84 °F (1990)
Min Temperature 57 °F 55 °F 40 °F (1969)
Degree Days  
Heating Degree Days 1 4  
Month to date heating degree days 121 172  
Since 1 July heating degree days 1681 2515  
Cooling Degree Days 0 1  
Month to date cooling degree days 28 16  
Year to date cooling degree days 56 19  
Growing Degree Days 12 (Base 50)    
Moisture  
Dew Point 46 °F    
Average Humidity 59    
Maximum Humidity 78    
Minimum Humidity 39    
Precipitation  
Precipitation 0.00 in 0.12 in 2.25 in (2003)
Month to date precipitation 4.97 3.11  
Year to date precipitation 17.56 17.14  
Snow  
Snow 0.00 in - - ()
Month to date snowfall 0.0  
Since 1 July snowfall T  
Snow Depth 0.00 in    
Sea Level Pressure  
Sea Level Pressure 29.92 in    
Wind  
Wind Speed 9 mph (West)    
Max Wind Speed 17 mph    
Max Gust Speed 23 mph    
Visibility 10 miles    
Events      
T = Trace of Precipitation, MM = Missing Value Source: NWS Daily Summary

Daily Weather History Graph

Daily Weather History Graph

Search for Another Location

Airport:

Trip Planner

Search our weather history database for the weather conditions in past years. The results will help you decide how hot, cold, wet, or windy it might be!

Date:

Astronomy

Apr. 25, 2012 Rise Set
Actual Time 6:17 AM EDT 7:43 PM EDT
Civil Twilight 5:50 AM EDT 8:10 PM EDT
Nautical Twilight 5:18 AM EDT 8:42 PM EDT
Astronomical Twilight 4:45 AM EDT 9:16 PM EDT
Moon 9:06 AM EDT (4/25) 11:43 PM EDT (4/25)
Length of Visible Light 14h 20m
Length of Day
13h 26m
Waxing Crescent, 16% of the Moon is Illuminated
Apr 25
Waxing Crescent
Apr 29
First Quarter
May 5
Full
May 12
Last Quarter
May 20
New

Hourly Weather History & Observations

Time (EDT) Temp. Dew Point Humidity Pressure Visibility Wind Dir Wind Speed Gust Speed Precip Events Conditions
12:51 AM 60.1 °F 36.0 °F 41% 29.82 in 10.0 mi West 8.1 mph - N/A   Clear
1:51 AM 59.0 °F 39.0 °F 48% 29.83 in 10.0 mi West 10.4 mph - N/A   Clear
2:51 AM 59.0 °F 41.0 °F 51% 29.83 in 10.0 mi West 10.4 mph - N/A   Clear
3:51 AM 60.1 °F 39.9 °F 47% 29.83 in 10.0 mi West 11.5 mph 20.7 mph N/A   Mostly Cloudy
4:51 AM 59.0 °F 43.0 °F 55% 29.84 in 10.0 mi West 10.4 mph 18.4 mph N/A   Partly Cloudy
5:51 AM 57.9 °F 41.0 °F 53% 29.86 in 10.0 mi West 8.1 mph - N/A   Clear
6:51 AM 57.0 °F 44.1 °F 62% 29.89 in 10.0 mi West 6.9 mph - N/A   Clear
7:51 AM 61.0 °F 44.1 °F 54% 29.91 in 10.0 mi West 11.5 mph - N/A   Clear
8:51 AM 63.0 °F 45.0 °F 52% 29.92 in 10.0 mi West 9.2 mph 16.1 mph N/A   Clear
9:51 AM 64.9 °F 48.0 °F 54% 29.93 in 10.0 mi West 6.9 mph - N/A   Partly Cloudy
10:51 AM 64.9 °F 48.0 °F 54% 29.94 in 10.0 mi West 12.7 mph 21.9 mph N/A   Clear
11:51 AM 66.0 °F 45.0 °F 47% 29.96 in 10.0 mi West 12.7 mph 19.6 mph N/A   Clear
12:51 PM 68.0 °F 45.0 °F 43% 29.95 in 10.0 mi West 9.2 mph 20.7 mph N/A   Clear
1:51 PM 68.0 °F 44.1 °F 42% 29.94 in 10.0 mi West 15.0 mph 20.7 mph N/A   Clear
2:51 PM 68.0 °F 45.0 °F 43% 29.93 in 10.0 mi West 11.5 mph 19.6 mph N/A   Clear
3:51 PM 68.0 °F 46.0 °F 45% 29.93 in 10.0 mi West 12.7 mph 20.7 mph N/A   Clear
4:51 PM 68.0 °F 46.9 °F 47% 29.92 in 10.0 mi West 10.4 mph 19.6 mph N/A   Clear
5:51 PM 68.0 °F 46.9 °F 47% 29.92 in 10.0 mi West 5.8 mph - N/A   Clear
6:51 PM 64.9 °F 48.0 °F 54% 29.93 in 10.0 mi West 4.6 mph - N/A   Clear
7:51 PM 64.9 °F 52.0 °F 63% 29.95 in 10.0 mi WSW 11.5 mph - N/A   Partly Cloudy
8:51 PM 64.0 °F 53.1 °F 67% 29.97 in 10.0 mi WSW 6.9 mph - N/A   Clear
9:51 PM 62.1 °F 53.1 °F 72% 30.00 in 10.0 mi West 4.6 mph - N/A   Clear
10:51 PM 61.0 °F 54.0 °F 78% 30.01 in 10.0 mi West 4.6 mph - N/A   Clear
11:51 PM 62.1 °F 53.1 °F 72% 30.00 in 10.0 mi West 4.6 mph - N/A   Clear